EW9154 Weather Reports


time (UTC)temp
F
wind
direction
speed
knots
gust
knots
rain 1hr
in
rain 24hr
in
rain mn
in
humidity
%
barometer
mb
20260507195458 62 241 0.0 0.0 0.00 0.00 0.00 23 1024.2
20260507194957 62 338 0.0 0.0 0.00 0.00 0.00 25 1024.3
20260507194454 62 355 0.0 0.0 0.00 0.00 0.00 23 1024.4
20260507193932 62 266 0.0 0.0 0.00 0.00 0.00 22 1024.5
20260507193359 63 48 0.0 0.0 0.00 0.00 0.00 22 1024.5
20260507192831 62 208 0.0 0.0 0.00 0.00 0.00 24 1024.4
20260507192323 62 211 0.0 0.0 0.00 0.00 0.00 22 1024.5
20260507191757 62 72 0.0 0.0 0.00 0.00 0.00 23 1024.5
20260507191505 62 250 0.0 2.6 0.00 0.00 0.00 26 1024.6
20260507190935 62 234 0.0 2.6 0.00 0.00 0.00 22 1024.8
20260507190139 63 215 0.0 0.9 0.00 0.00 0.00 23 1024.8
20260507185618 62 200 0.0 0.9 0.00 0.00 0.00 26 1024.8
20260507185035 61 198 0.0 0.0 0.00 0.00 0.00 26 1024.8
20260507184510 60 279 0.0 0.0 0.00 0.00 0.00 26 1024.8
20260507183940 59 279 0.0 0.9 0.00 0.00 0.00 25 1024.9
20260507183711 60 274 0.0 0.9 0.00 0.00 0.00 25 1025.0
20260507182919 60 261 0.0 0.0 0.00 0.00 0.00 24 1025.0
20260507182415 60 276 0.0 0.0 0.00 0.00 0.00 26 1025.0
20260507181920 60 215 0.0 0.0 0.00 0.00 0.00 29 1024.9
20260507181624 60 308 0.0 0.0 0.00 0.00 0.00 26 1025.1
20260507180832 59 298 0.0 0.0 0.00 0.00 0.00 26 1025.1
20260507180254 59 24 0.0 0.0 0.00 0.00 0.00 28 1025.0
20260507175753 60 273 0.0 0.9 0.00 0.00 0.00 27 1025.1
20260507175240 59 304 0.0 0.9 0.00 0.00 0.00 25 1025.1
20260507174739 59 243 0.0 0.9 0.00 0.00 0.00 28 1025.1
20260507174210 59 355 0.0 0.0 0.00 0.00 0.00 29 1025.1
20260507173709 59 257 0.0 0.9 0.00 0.00 0.00 28 1025.3
20260507173143 58 278 0.0 0.9 0.00 0.00 0.00 26 1025.2
20260507172618 58 196 0.0 4.3 0.00 0.00 0.00 27 1025.3
20260507172112 58 216 0.0 4.3 0.00 0.00 0.00 28 1025.3
20260507171611 58 272 0.0 0.0 0.00 0.00 0.00 27 1025.5
20260507171111 58 351 0.0 0.9 0.00 0.00 0.00 27 1025.5
20260507170615 57 303 0.0 0.9 0.00 0.00 0.00 28 1025.6
20260507170046 57 243 0.0 1.7 0.00 0.00 0.00 27 1025.6
20260507165547 56 242 0.0 1.7 0.00 0.00 0.00 25 1025.6
20260507165317 56 277 0.0 1.7 0.00 0.00 0.00 28 1025.6
20260507164547 55 323 0.0 0.9 0.00 0.00 0.00 29 1025.7
20260507164021 55 348 0.0 0.9 0.00 0.00 0.00 31 1025.8
20260507163455 55 226 0.0 0.9 0.00 0.00 0.00 31 1025.7
20260507162928 55 334 0.0 0.0 0.00 0.00 0.00 32 1025.8
20260507162427 55 257 0.0 0.0 0.00 0.00 0.00 33 1025.8
20260507161910 54 288 0.0 0.0 0.00 0.00 0.00 33 1025.8
20260507161412 54 348 0.0 0.0 0.00 0.00 0.00 33 1025.9
20260507160844 54 310 0.0 0.0 0.00 0.00 0.00 33 1025.9
20260507160613 54 309 0.0 0.0 0.00 0.00 0.00 33 1026.0
20260507155814 53 309 0.0 0.0 0.00 0.00 0.00 35 1026.0
20260507155313 53 340 0.0 0.0 0.00 0.00 0.00 35 1026.0
20260507154756 54 261 0.0 0.0 0.00 0.00 0.00 32 1025.9
20260507154256 53 224 0.0 0.0 0.00 0.00 0.00 33 1025.9
20260507153757 51 224 0.0 0.0 0.00 0.00 0.00 36 1026.0
20260507153523 51 44 0.0 0.9 0.00 0.00 0.00 35 1026.0
20260507152751 51 222 0.0 0.9 0.00 0.00 0.00 36 1026.1
20260507152456 51 230 0.0 1.7 0.00 0.00 0.00 37 1026.1
20260507151928 51 230 0.0 1.7 0.00 0.00 0.00 37 1026.1
20260507151149 51 234 0.0 0.0 0.00 0.00 0.00 37 1026.2
20260507150623 50 234 0.0 0.0 0.00 0.00 0.00 40 1026.1
20260507150123 49 234 0.0 0.0 0.00 0.00 0.00 38 1026.1
20260507145856 49 234 0.0 0.0 0.00 0.00 0.00 39 1026.1
20260507145124 48 234 0.0 0.0 0.00 0.00 0.00 41 1026.1
20260507144622 48 234 0.0 0.0 0.00 0.00 0.00 42 1026.2
20260507144119 47 234 0.0 0.0 0.00 0.00 0.00 43 1026.2
20260507143851 47 233 0.0 0.0 0.00 0.00 0.00 43 1026.2
20260507143053 47 227 0.0 0.0 0.00 0.00 0.00 46 1026.2
20260507142522 47 227 0.0 0.0 0.00 0.00 0.00 45 1026.3
20260507142254 46 227 0.0 0.0 0.00 0.00 0.00 46 1026.3
20260507141457 45 227 0.0 0.0 0.00 0.00 0.00 46 1026.3
20260507141222 45 227 0.0 0.0 0.00 0.00 0.00 48 1026.4
20260507140425 44 227 0.0 0.0 0.00 0.00 0.00 49 1026.4
20260507135922 44 227 0.0 0.0 0.00 0.00 0.00 52 1026.3
20260507135648 43 227 0.0 0.0 0.00 0.00 0.00 54 1026.4
20260507134907 43 227 0.0 0.0 0.00 0.00 0.00 59 1026.4
20260507134406 42 227 0.0 0.0 0.00 0.00 0.00 60 1026.4
20260507134134 42 227 0.0 0.0 0.00 0.00 0.00 61 1026.4
20260507133328 41 226 0.0 0.0 0.00 0.00 0.00 64 1026.4
20260507132801 41 225 0.0 0.0 0.00 0.00 0.00 63 1026.4
20260507132237 40 225 0.0 0.0 0.00 0.00 0.00 64 1026.5
20260507131732 40 225 0.0 0.0 0.00 0.00 0.00 65 1026.5
20260507131228 40 225 0.0 0.0 0.00 0.00 0.00 65 1026.5
20260507130710 39 225 0.0 0.0 0.00 0.00 0.00 66 1026.5
20260507130209 39 225 0.0 0.0 0.00 0.00 0.00 67 1026.5
20260507130149 38 225 0.0 0.0 0.00 0.00 0.00 69 1026.5
20260507125146 38 225 0.0 0.0 0.00 0.00 0.00 69 1026.5
20260507124643 38 225 0.0 0.0 0.00 0.00 0.00 69 1026.6
20260507124142 37 225 0.0 0.0 0.00 0.00 0.00 70 1026.5
20260507123643 37 225 0.0 0.0 0.00 0.00 0.00 71 1026.5
20260507123145 36 225 0.0 0.0 0.00 0.00 0.00 72 1026.6
20260507122617 36 225 0.0 0.0 0.00 0.00 0.00 72 1026.6
20260507122115 36 225 0.0 0.0 0.00 0.00 0.00 73 1026.6
20260507121610 36 225 0.0 0.0 0.00 0.00 0.00 74 1026.6
20260507121109 35 229 0.0 0.0 0.00 0.00 0.00 74 1026.6
20260507120544 35 229 0.0 0.0 0.00 0.00 0.00 74 1026.6
20260507120022 35 229 0.0 0.0 0.00 0.00 0.00 74 1026.6
20260507115525 35 229 0.0 0.0 0.00 0.00 0.00 74 1026.6
20260507115508 35 229 0.0 0.0 0.00 0.00 0.00 74 1026.5
20260507114506 35 229 0.0 0.0 0.00 0.00 0.00 74 1026.5
20260507114003 35 229 0.0 0.0 0.00 0.00 0.00 74 1026.5
20260507113436 35 229 0.0 0.0 0.00 0.00 0.00 74 1026.5
20260507112936 35 229 0.0 0.0 0.00 0.00 0.00 74 1026.5
20260507112439 35 229 0.0 0.0 0.00 0.00 0.00 74 1026.5
20260507111924 35 229 0.0 0.0 0.00 0.00 0.00 74 1026.5
20260507111422 35 229 0.0 0.0 0.00 0.00 0.00 73 1026.5
20260507111130 35 229 0.0 0.0 0.00 0.00 0.00 73 1026.5
20260507110354 35 229 0.0 0.0 0.00 0.00 0.00 73 1026.4
20260507105833 35 229 0.0 0.0 0.00 0.00 0.00 74 1026.4
20260507105311 35 229 0.0 0.0 0.00 0.00 0.00 74 1026.4
20260507104747 35 229 0.0 0.0 0.00 0.00 0.00 73 1026.5
20260507104225 35 229 0.0 0.0 0.00 0.00 0.00 73 1026.5
20260507103727 35 229 0.0 0.0 0.00 0.00 0.00 73 1026.5
20260507103223 35 229 0.0 0.0 0.00 0.00 0.00 73 1026.5
20260507102659 35 229 0.0 0.0 0.00 0.00 0.00 73 1026.5
20260507102136 35 229 0.0 0.0 0.00 0.00 0.00 72 1026.5
20260507101619 35 229 0.0 0.0 0.00 0.00 0.00 72 1026.5
20260507101118 35 229 0.0 0.0 0.00 0.00 0.00 71 1026.5
20260507100619 35 229 0.0 0.0 0.00 0.00 0.00 71 1026.6
20260507100112 35 229 0.0 0.0 0.00 0.00 0.00 70 1026.6
20260507095538 35 229 0.0 0.0 0.00 0.00 0.00 70 1026.6
20260507095019 35 229 0.0 0.0 0.00 0.00 0.00 69 1026.6
20260507094452 35 229 0.0 0.0 0.00 0.00 0.00 69 1026.6
20260507094202 36 229 0.0 0.0 0.00 0.00 0.00 69 1026.5
20260507093637 36 229 0.0 0.0 0.00 0.00 0.00 69 1026.6
20260507092816 36 229 0.0 0.0 0.00 0.00 0.00 69 1026.6
20260507092250 36 229 0.0 0.0 0.00 0.00 0.00 69 1026.6
20260507091726 36 229 0.0 0.0 0.00 0.00 0.00 68 1026.6
20260507091201 36 229 0.0 0.0 0.00 0.00 0.00 68 1026.6
20260507090636 37 229 0.0 0.0 0.00 0.00 0.00 68 1026.6
20260507090105 37 229 0.0 0.0 0.00 0.00 0.00 68 1026.7
20260507085545 37 229 0.0 0.0 0.00 0.00 0.00 68 1026.7
20260507085020 37 229 0.0 0.0 0.00 0.00 0.00 68 1026.6
20260507084517 37 229 0.0 1.7 0.00 0.00 0.00 69 1026.7
20260507083952 37 232 0.0 0.0 0.00 0.00 0.00 69 1026.7
20260507083429 37 240 0.0 0.0 0.00 0.00 0.00 69 1026.7
20260507082916 37 240 0.0 0.0 0.00 0.00 0.00 69 1026.7
20260507082350 37 240 0.0 0.0 0.00 0.00 0.00 69 1026.7
20260507081826 37 240 0.0 0.0 0.00 0.00 0.00 68 1026.7
20260507081301 37 240 0.0 0.0 0.00 0.00 0.00 68 1026.7
20260507080734 37 240 0.0 0.0 0.00 0.00 0.00 69 1026.7
20260507080206 37 241 0.0 0.0 0.00 0.00 0.00 69 1026.6
20260507075659 37 241 0.0 0.0 0.00 0.00 0.00 69 1026.7
20260507075132 37 241 0.0 0.0 0.00 0.00 0.00 69 1026.7
20260507074626 38 241 0.0 0.0 0.00 0.00 0.00 69 1026.7
20260507074356 38 243 0.0 0.0 0.00 0.00 0.00 69 1026.8
20260507073055 38 246 0.0 0.0 0.00 0.00 0.00 68 1026.9
20260507072547 38 246 0.0 0.0 0.00 0.00 0.00 67 1027.0
20260507072021 38 248 0.0 0.0 0.00 0.00 0.00 67 1027.0
20260507071456 38 248 0.0 0.0 0.00 0.00 0.00 66 1027.0
20260507070929 38 249 0.0 0.0 0.00 0.00 0.00 65 1027.2
20260507070425 38 249 0.0 0.0 0.00 0.00 0.00 65 1027.2
20260507065925 38 249 0.0 0.0 0.00 0.00 0.00 64 1027.3
20260507065414 38 249 0.0 0.0 0.00 0.00 0.00 63 1027.4
20260507064848 39 249 0.0 0.0 0.00 0.00 0.00 63 1027.4
20260507064319 39 249 0.0 0.0 0.00 0.00 0.00 63 1027.4
20260507063818 39 249 0.0 0.0 0.00 0.00 0.00 63 1027.4
20260507063314 39 249 0.0 0.0 0.00 0.00 0.00 62 1027.4
20260507062809 39 249 0.0 0.0 0.00 0.00 0.00 63 1027.5
20260507062247 40 249 0.0 0.0 0.00 0.00 0.00 63 1027.5
20260507061745 40 249 0.0 0.0 0.00 0.00 0.00 62 1027.6
20260507061242 40 249 0.0 0.0 0.00 0.00 0.00 62 1027.6
20260507060739 40 249 0.0 0.0 0.00 0.00 0.00 62 1027.7
20260507060238 40 249 0.0 0.0 0.00 0.00 0.00 62 1027.7
20260507055939 40 249 0.0 0.0 0.00 0.00 0.00 62 1027.7
20260507055152 41 249 0.0 0.0 0.00 0.00 0.00 63 1027.7
20260507054918 41 249 0.0 0.0 0.00 0.00 0.00 63 1027.7
20260507054146 41 249 0.0 0.0 0.00 0.00 0.00 62 1027.7
20260507053633 41 249 0.0 0.0 0.00 0.00 0.00 62 1027.7
20260507053135 41 249 0.0 0.0 0.00 0.00 0.00 62 1027.7
20260507052607 41 249 0.0 0.0 0.00 0.00 0.00 61 1027.8
20260507052057 41 249 0.0 0.0 0.00 0.00 0.00 61 1027.8
20260507051555 41 249 0.0 0.0 0.00 0.00 0.00 61 1027.9
20260507051324 41 249 0.0 0.0 0.00 0.00 0.00 62 1027.9
20260507050525 41 249 0.0 0.0 0.00 0.00 0.00 63 1027.9
20260507050255 41 249 0.0 0.0 0.00 0.00 0.00 61 1027.9
20260507045500 41 249 0.0 0.0 0.00 0.00 0.00 61 1027.9
20260507045004 41 249 0.0 0.0 0.00 0.00 0.00 60 1028.0
20260507044435 41 249 0.0 0.0 0.00 0.00 0.00 59 1028.0
20260507043934 41 249 0.0 0.0 0.00 0.00 0.00 58 1028.0
20260507043637 41 249 0.0 0.0 0.00 0.00 0.00 58 1028.1
20260507042904 41 249 0.0 0.0 0.00 0.00 0.00 58 1028.1
20260507042335 41 249 0.0 0.0 0.00 0.00 0.00 58 1028.1
20260507041825 41 249 0.0 0.0 0.00 0.00 0.00 57 1028.1
20260507041324 41 249 0.0 0.0 0.00 0.00 0.00 57 1028.2
20260507040758 41 249 0.0 0.0 0.00 0.00 0.00 57 1028.2
20260507040240 41 249 0.0 0.0 0.00 0.00 0.00 57 1028.2
20260507035742 41 249 0.0 0.0 0.00 0.00 0.00 57 1028.2
20260507035239 41 249 0.0 0.0 0.00 0.00 0.00 57 1028.3
20260507035011 41 249 0.0 0.0 0.00 0.00 0.00 57 1028.3
20260507034212 41 249 0.0 0.0 0.00 0.00 0.00 57 1028.3
20260507034145 41 249 0.0 0.0 0.00 0.00 0.00 57 1028.3
20260507033139 41 249 0.0 0.0 0.00 0.00 0.00 57 1028.3
20260507032609 41 249 0.0 0.0 0.00 0.00 0.00 58 1028.4
20260507032111 41 249 0.0 0.0 0.00 0.00 0.00 58 1028.4
20260507031614 41 249 0.0 0.0 0.00 0.00 0.00 58 1028.3
20260507031319 41 249 0.0 0.0 0.00 0.00 0.00 59 1028.4
20260507030519 41 249 0.0 0.0 0.00 0.00 0.00 59 1028.4
20260507025951 41 249 0.0 0.0 0.00 0.00 0.00 58 1028.5
20260507025447 41 249 0.0 0.0 0.00 0.00 0.00 58 1028.5
20260507025213 41 249 0.0 0.0 0.00 0.00 0.00 58 1028.4
20260507024432 41 249 0.0 0.0 0.00 0.00 0.00 58 1028.5
20260507023857 41 249 0.0 0.0 0.00 0.00 0.00 57 1028.4
20260507023351 41 249 0.0 0.0 0.00 0.00 0.00 57 1028.4
20260507022850 41 249 0.0 0.0 0.00 0.00 0.00 57 1028.5
20260507022552 41 249 0.0 0.0 0.00 0.00 0.00 57 1028.4
20260507021821 41 249 0.0 0.0 0.00 0.00 0.00 56 1028.5
20260507021310 41 249 0.0 0.0 0.00 0.00 0.00 56 1028.6
20260507020742 42 249 0.0 0.0 0.00 0.00 0.00 56 1028.5
20260507020511 42 249 0.0 0.0 0.00 0.00 0.00 55 1028.5
20260507015727 42 249 0.0 0.0 0.00 0.00 0.00 54 1028.5
20260507015230 42 249 0.0 0.0 0.00 0.00 0.00 54 1028.5
20260507014701 42 249 0.0 0.0 0.00 0.00 0.00 53 1028.4
20260507014419 42 249 0.0 0.0 0.00 0.00 0.00 53 1028.4
20260507013617 43 249 0.0 0.0 0.00 0.00 0.00 52 1028.4
20260507013116 43 249 0.0 0.0 0.00 0.00 0.00 52 1028.4
20260507012548 43 249 0.0 0.0 0.00 0.00 0.00 52 1028.5
20260507012044 43 249 0.0 0.0 0.00 0.00 0.00 51 1028.5
20260507011523 43 249 0.0 0.0 0.00 0.00 0.00 51 1028.5
20260507011026 44 249 0.0 0.0 0.00 0.00 0.00 50 1028.5
20260507010457 44 249 0.0 0.0 0.00 0.00 0.00 50 1028.6
20260507005956 44 249 0.0 0.0 0.00 0.00 0.00 49 1028.6
20260507005427 44 250 0.0 0.0 0.00 0.00 0.00 49 1028.5
20260507004924 44 250 0.0 0.0 0.00 0.00 0.00 49 1028.5
20260507004357 45 250 0.0 0.0 0.00 0.00 0.00 48 1028.6
20260507003839 45 250 0.0 1.7 0.00 0.00 0.00 48 1028.6
20260507003336 45 254 0.0 1.7 0.00 0.00 0.00 46 1028.6
20260507002833 45 190 0.0 4.3 0.00 0.00 0.00 47 1028.6
20260507002332 45 250 0.0 4.3 0.00 0.00 0.00 46 1028.6
20260507001803 46 254 0.0 0.0 0.00 0.00 0.00 47 1028.7
20260507001259 46 247 0.0 3.5 0.00 0.00 0.00 47 1028.7
20260507000741 46 269 0.0 3.5 0.00 0.00 0.00 46 1028.7
20260507000240 46 233 0.0 0.0 0.00 0.00 0.00 46 1028.7
20260506235711 46 247 0.0 0.0 0.00 0.00 0.00 47 1028.7
20260506235210 46 254 0.0 0.0 0.00 0.00 0.00 48 1028.8
20260506234644 46 254 0.0 2.6 0.00 0.00 0.00 47 1028.8
20260506234127 46 231 0.0 2.6 0.00 0.00 0.00 47 1028.9
20260506233631 46 234 0.0 0.0 0.00 0.00 0.00 47 1028.9
20260506233104 46 231 0.0 0.0 0.00 0.00 0.00 46 1028.9
20260506232535 46 231 0.0 0.0 0.00 0.00 0.00 46 1028.9
20260506232306 47 238 0.0 0.0 0.00 0.00 0.00 46 1028.9
20260506231740 47 238 0.0 0.0 0.00 0.00 0.00 45 1028.9
20260506230951 47 237 0.0 0.0 0.00 0.00 0.00 46 1028.9
20260506230453 47 237 0.0 0.9 0.00 0.00 0.00 45 1028.9
20260506225925 47 271 0.0 0.9 0.00 0.00 0.00 44 1028.9
20260506225658 47 250 0.0 0.9 0.00 0.00 0.00 44 1028.9
20260506224915 47 240 0.0 0.9 0.00 0.00 0.00 44 1028.9
20260506224417 48 159 0.0 0.9 0.00 0.00 0.00 45 1029.0
20260506223849 48 301 0.0 0.0 0.00 0.00 0.00 45 1028.9
20260506223345 48 309 0.0 0.0 0.00 0.00 0.00 45 1028.9
20260506222843 48 238 0.0 0.0 0.00 0.00 0.00 43 1028.9
20260506222612 48 259 0.0 0.0 0.00 0.00 0.00 44 1029.0
20260506221842 48 245 0.0 1.7 0.00 0.00 0.00 44 1028.9
20260506221333 48 230 0.0 1.7 0.00 0.00 0.00 44 1029.0
20260506221100 48 236 0.0 6.1 0.00 0.00 0.00 45 1029.0
20260506220304 48 209 0.0 6.1 0.00 0.00 0.00 44 1028.9
20260506220010 48 244 0.0 0.9 0.00 0.00 0.00 45 1029.0
20260506215232 48 248 0.0 0.9 0.00 0.00 0.00 45 1029.1
20260506215005 47 248 0.0 0.9 0.00 0.00 0.00 45 1029.1
20260506214230 47 227 0.0 0.9 0.00 0.00 0.00 45 1029.2
20260506213731 47 247 0.0 1.7 0.00 0.00 0.00 44 1029.2
20260506213229 47 241 0.0 1.7 0.00 0.00 0.00 45 1029.3
20260506212729 47 230 0.0 0.9 0.00 0.00 0.00 45 1029.3
20260506212225 47 248 0.0 0.9 0.00 0.00 0.00 45 1029.3
20260506211729 47 229 0.0 0.9 0.00 0.00 0.00 46 1029.3
20260506211443 47 250 0.0 0.9 0.00 0.00 0.00 48 1029.3
20260506210713 46 233 0.0 0.9 0.00 0.00 0.00 45 1029.4
20260506210203 47 215 0.0 2.6 0.00 0.00 0.00 46 1029.6
20260506210151 47 228 0.0 2.6 0.00 0.00 0.00 46 1029.7
20260506205149 47 254 0.0 0.0 0.00 0.00 0.00 47 1029.7
20260506204635 47 229 0.0 0.0 0.00 0.00 0.00 47 1029.7
20260506204117 47 248 0.0 5.2 0.00 0.00 0.00 47 1029.8
20260506203607 47 260 0.0 5.2 0.00 0.00 0.00 47 1029.9
20260506203100 47 248 0.0 0.9 0.00 0.00 0.00 47 1029.7
20260506202603 47 257 0.0 0.0 0.00 0.00 0.00 48 1029.8
20260506202043 47 217 0.0 0.9 0.00 0.00 0.00 48 1029.8
20260506201542 46 237 0.0 3.5 0.00 0.00 0.00 49 1029.8
20260506201046 46 233 0.0 3.5 0.00 0.00 0.00 51 1029.7
20260506200523 45 201 0.0 2.6 0.00 0.00 0.00 50 1029.9
20260506200012 44 272 0.0 2.6 0.00 0.00 0.00 51 1029.9